RH
25 24 24 23 24 24 22 20 19 18 19 18 16 16 16 16 18 19 19 17 15 14 14 13 15 21 22 17 16 16 16 18 22 24 29 35 38 41 41 43 47 48 49 51 49 48 51 54 57 59 61 61 62 66 70 68 66 67 67 64 62 64 63 58 54 52 52 56 62 69 73 71 67 63 61 63 68 71 73 75 76 76 74 71 67 63 58
24 23 23 22 22 22 21 19 20 19 18 17 16 16 16 16 16 16 18 19 16 15 14 12 13 17 19 19 20 20 21 22 23 26 31 35 39 42 43 44 48 50 51 52 50 49 51 54 57 59 61 63 62 65 69 69 68 68 70 68 64 62 62 59 57 59 64 69 71 70 67 64 62 63 67 71 72 73 74 74 75 74 73 70 66 61 54
23 22 22 22 21 20 19 18 19 19 17 16 15 15 16 16 15 14 15 16 18 19 18 15 12 12 14 16 18 19 21 22 23 29 34 37 40 44 46 46 48 50 51 52 52 51 53 56 58 59 63 66 67 68 70 70 70 71 73 73 68 63 62 61 62 67 70 69 65 63 63 65 67 70 72 73 72 73 73 74 75 74 72 68 64 58 48
24 22 22 23 20 20 19 17 18 17 16 15 15 15 16 15 14 14 14 14 16 20 21 19 16 13 12 13 14 16 18 19 24 32 36 39 42 43 43 44 44 46 48 50 51 52 56 61 62 62 64 66 68 71 74 75 75 74 76 76 72 66 62 63 67 71 67 62 62 66 70 72 73 73 73 73 73 74 75 76 76 73 70 66 61 51 39
27 22 21 21 20 22 22 18 17 17 16 15 14 13 14 14 13 14 14 13 16 22 24 22 21 18 15 14 15 18 21 24 30 36 38 41 43 43 44 43 44 46 48 50 51 53 58 62 62 62 63 64 68 74 79 81 80 78 79 79 77 71 66 67 70 67 60 60 67 73 73 72 72 73 73 74 75 76 78 78 76 72 69 64 56 44 30
28 22 20 20 24 30 28 20 17 17 17 15 14 14 14 16 16 16 15 13 15 22 27 26 25 23 20 19 20 24 28 31 35 37 38 41 44 46 47 48 49 51 52 54 56 57 60 63 65 66 66 66 71 77 82 84 83 82 81 82 82 77 70 70 68 59 56 63 72 73 72 73 74 73 73 75 78 80 80 78 75 71 66 60 50 35 21
25 22 20 23 33 39 32 21 18 18 17 15 15 16 17 17 17 17 17 15 14 19 26 29 29 27 26 28 29 31 34 36 38 40 39 41 43 43 46 49 51 53 54 56 59 60 61 63 68 70 69 68 71 75 80 85 87 86 85 86 87 82 75 71 66 59 59 66 71 74 76 78 78 76 74 76 81 82 80 76 73 68 63 57 45 27 13
25 22 24 30 41 44 35 26 21 19 18 17 16 17 17 17 17 18 20 21 17 16 22 28 31 30 30 32 34 36 37 38 39 40 39 39 41 42 45 48 49 51 54 57 63 66 63 61 66 72 72 72 74 75 77 83 88 88 85 86 88 84 80 76 68 65 67 71 74 79 81 83 84 81 78 80 83 82 78 74 70 66 60 50 35 18 7
28 27 33 39 42 43 39 32 26 20 19 19 18 17 17 16 17 20 27 30 23 14 15 22 30 33 33 33 35 37 39 40 40 39 39 39 42 45 49 51 52 53 55 57 64 70 69 64 67 75 78 77 77 76 77 84 92 92 87 88 89 87 85 83 77 76 80 81 83 86 87 88 85 80 80 84 83 79 76 71 66 62 53 39 22 8 3
31 31 41 49 48 45 40 35 30 23 20 21 19 18 20 20 18 18 24 29 24 16 14 17 23 30 32 32 34 36 37 39 39 38 36 38 42 46 49 53 55 55 56 59 64 70 74 70 69 77 81 77 73 76 82 90 97 94 89 89 90 89 91 90 86 87 91 91 92 94 95 94 86 79 82 84 80 76 74 68 63 56 42 25 11 4 2
34 32 41 48 47 42 37 35 33 26 21 22 19 18 21 23 20 17 18 21 20 19 20 20 21 24 26 27 31 33 35 36 35 34 36 42 47 51 54 58 59 57 57 60 61 64 70 72 72 78 82 77 76 82 86 90 96 95 92 93 93 93 96 94 89 90 95 95 95 98 98 93 86 82 81 79 77 77 73 68 62 51 31 13 4 2 3
36 35 42 46 42 37 34 35 34 31 27 23 20 25 30 26 21 20 18 18 20 24 27 26 25 25 23 24 31 34 34 34 32 33 39 47 53 55 56 58 57 54 53 54 54 57 64 69 71 77 80 79 81 87 87 87 93 95 93 95 97 98 100 98 93 94 96 94 93 98 97 90 85 85 82 79 78 78 75 70 61 41 19 5 1 2 4
35 37 45 49 45 39 36 34 32 32 32 24 23 33 36 27 22 23 21 21 23 25 26 26 26 26 23 23 30 31 28 28 30 31 36 44 50 53 54 55 55 54 52 51 52 56 62 67 69 74 80 81 82 86 88 88 90 91 91 95 99 100 99 99 99 99 98 96 95 97 97 93 90 88 84 80 79 80 78 67 45 21 7 2 2 3 3
40 42 46 50 50 45 39 37 34 31 29 28 32 41 38 27 24 25 24 24 24 22 22 22 23 26 24 22 26 29 27 27 29 30 32 36 39 40 41 43 46 48 49 48 47 48 54 61 68 74 81 84 84 85 88 91 91 91 91 95 98 99 100 99 99 99 99 100 98 93 91 93 92 88 83 79 80 82 73 47 19 5 3 2 2 3 3
40 41 43 50 55 49 41 39 36 31 30 34 41 45 40 32 29 26 24 25 24 22 23 22 22 28 29 25 24 27 28 27 27 27 28 29 30 30 31 32 34 37 36 33 32 33 37 48 60 68 73 79 84 87 92 98 95 85 83 91 96 98 100 100 98 100 100 99 97 89 87 91 90 84 83 85 84 76 54 24 5 2 3 2 3 4 3
34 35 41 51 53 46 41 43 40 35 36 39 40 40 36 33 32 30 27 26 24 22 23 22 22 28 30 29 29 29 27 26 25 25 26 27 28 29 30 31 32 34 32 28 25 23 23 30 39 49 62 74 82 87 94 99 93 80 82 95 100 98 99 99 99 100 99 94 90 86 86 90 87 82 85 89 81 60 33 11 3 3 2 3 4 3 3
33 36 45 53 53 48 46 47 44 39 39 40 39 38 36 34 32 30 28 28 27 25 25 23 23 26 27 30 34 33 29 28 28 28 29 30 29 28 30 31 32 34 34 33 31 26 24 22 21 33 58 74 78 83 90 92 91 89 91 97 98 98 100 101 99 99 95 90 87 87 87 87 83 81 84 82 67 45 21 6 3 3 3 3 4 3 4
37 38 43 50 54 54 50 46 43 42 41 40 40 40 39 37 36 33 30 29 28 28 27 26 25 26 27 30 36 37 34 33 34 33 32 32 31 29 30 31 33 34 34 35 34 31 30 27 19 28 54 68 69 78 89 92 95 98 96 93 92 92 94 97 97 96 91 88 89 88 86 83 81 81 80 70 51 31 13 2 2 5 5 4 4 3 4
43 42 43 46 51 55 53 49 47 45 42 40 38 36 35 35 35 35 34 33 31 31 29 28 27 28 28 30 35 40 40 38 38 37 36 36 35 32 31 30 32 34 33 33 34 32 30 28 21 25 44 56 60 74 91 95 94 94 93 93 92 88 88 92 92 89 87 87 89 86 82 81 81 80 77 63 40 19 8 4 5 8 7 4 4 4 4
45 44 43 44 46 48 47 45 44 44 43 41 39 35 33 32 31 33 34 35 35 35 32 30 30 31 34 34 35 39 42 41 41 43 44 44 42 38 36 34 33 34 33 33 33 31 27 26 23 27 39 47 50 66 87 90 83 83 90 96 97 94 93 90 85 83 86 89 88 86 83 82 80 78 74 57 30 10 5 6 6 5 5 4 4 4 4
45 44 44 43 41 40 39 38 38 38 38 39 39 37 36 36 33 31 31 33 36 37 37 35 32 32 37 41 41 41 42 41 43 47 51 52 50 46 40 37 37 38 35 33 32 28 26 26 26 31 40 43 47 68 91 91 82 86 96 98 97 96 96 91 85 84 88 90 87 85 84 82 79 78 69 43 14 3 9 14 11 6 4 4 5 5 5
45 44 45 46 43 42 42 39 37 37 36 35 37 37 38 38 36 32 31 32 34 35 36 38 37 33 34 38 42 44 45 45 45 47 50 53 55 51 46 43 42 39 36 35 34 32 30 31 31 34 41 43 48 69 93 99 94 95 98 95 92 89 89 92 91 85 86 89 87 85 84 82 79 78 64 32 6 5 17 23 18 9 4 4 5 5 5
46 45 46 47 45 45 46 43 40 40 39 38 38 38 37 38 37 35 34 34 34 34 34 35 38 38 36 35 37 39 40 40 41 43 48 55 57 54 49 46 44 41 39 38 37 36 35 36 36 36 41 45 45 56 79 97 101 98 96 96 94 86 83 90 93 88 86 90 87 83 84 82 79 76 57 23 5 16 33 33 21 8 4 5 4 4 5
51 48 49 50 47 45 46 45 43 42 41 41 41 40 38 38 39 39 38 37 37 38 36 33 35 39 41 41 40 38 36 35 35 39 49 59 61 57 54 51 47 45 45 45 44 46 47 47 45 41 42 44 42 44 64 90 102 99 97 98 95 89 87 91 93 90 88 89 87 84 83 81 79 73 48 14 6 30 49 42 20 6 4 4 4 4 5
57 55 54 54 52 49 47 46 44 43 43 42 42 42 42 42 43 44 44 44 43 42 39 35 34 35 39 43 45 45 45 43 39 40 46 54 57 57 58 59 56 53 53 55 58 62 62 57 53 49 47 46 42 40 55 82 96 95 94 95 96 95 96 96 94 91 90 90 88 84 81 79 78 68 40 13 14 38 49 34 13 4 4 4 4 5 6
62 60 59 58 57 55 54 51 49 48 46 45 45 47 47 47 47 47 48 49 48 45 42 38 36 34 36 41 46 51 55 55 50 47 49 52 57 59 60 64 66 63 63 67 71 73 69 59 53 53 52 50 46 44 54 77 92 93 92 95 97 97 97 98 97 94 91 90 87 82 80 80 73 53 25 15 29 45 40 20 6 3 4 4 4 6 6
65 63 62 62 61 60 59 57 54 53 52 51 51 50 49 48 49 50 50 49 48 46 44 42 40 37 36 37 40 46 54 58 57 55 54 56 60 60 59 63 70 71 71 74 75 73 70 63 56 55 55 53 52 52 59 76 91 96 96 96 96 97 98 99 99 96 93 90 85 82 81 76 60 35 16 24 47 50 29 9 3 4 5 5 5 6 7
68 67 64 62 61 61 61 60 59 57 56 55 54 51 49 50 52 53 53 52 50 49 48 45 43 41 40 39 39 40 45 49 52 54 56 58 62 63 63 68 75 77 77 78 77 75 76 74 70 65 62 59 57 60 69 84 94 98 98 97 98 99 98 96 95 96 95 88 83 82 78 62 38 19 19 39 55 42 16 4 5 5 5 6 7 7 8
65 65 65 63 61 60 60 60 61 61 59 57 56 53 50 52 54 54 54 54 53 52 50 48 46 45 43 42 42 42 42 43 44 46 49 52 56 61 64 69 76 79 78 78 77 76 77 79 80 79 74 66 60 64 80 96 100 98 99 100 99 100 99 94 90 90 90 86 83 82 69 43 20 16 32 52 52 28 7 3 5 5 5 7 7 8 8
65 64 64 64 63 61 60 60 60 61 61 60 60 58 56 56 57 57 58 58 56 53 52 50 48 48 47 46 45 44 44 43 43 43 44 45 50 57 62 66 71 74 75 75 77 80 80 77 79 85 87 77 65 68 85 99 101 98 99 100 99 99 100 98 94 91 87 86 85 78 58 34 23 31 49 57 41 16 3 4 5 5 7 7 6 8 9
70 68 64 65 65 64 64 62 60 62 65 66 66 66 63 62 62 62 61 59 57 54 52 50 49 49 49 49 48 46 45 45 45 45 46 47 49 52 57 62 64 66 67 68 73 85 92 84 77 85 97 91 75 74 88 99 100 99 99 100 99 98 98 96 95 93 91 90 87 74 52 39 44 57 63 52 28 8 2 5 5 5 6 7 8 9 10
76 76 73 72 73 72 70 68 68 70 73 73 72 71 69 67 66 64 62 60 58 55 52 50 50 49 49 48 48 48 46 46 46 45 45 48 48 46 48 54 59 59 60 59 61 72 83 82 79 90 103 98 85 84 94 100 100 99 98 99 99 99 99 97 96 94 94 94 87 69 51 49 59 65 55 33 13 4 3 5 5 6 7 8 9 10 11
87 89 88 86 85 84 81 79 77 76 75 74 73 73 73 72 70 67 64 62 60 57 53 51 51 51 50 49 48 47 48 51 54 54 52 51 50 46 45 48 51 51 51 52 52 55 63 71 80 92 98 94 91 95 100 100 99 100 98 98 99 100 99 100 99 96 97 97 93 82 72 67 61 49 32 14 5 3 5 5 5 6 7 8 11 12 12
98 98 97 95 93 90 88 85 82 77 74 72 71 72 72 72 70 68 66 64 63 61 57 53 52 53 52 51 51 51 54 62 68 69 67 63 58 52 48 46 46 46 46 47 47 49 57 68 78 86 90 93 97 100 100 99 99 100 99 99 100 100 99 99 99 98 98 97 95 94 90 75 48 24 11 6 3 3 5 5 6 7 8 10 12 12 12
98 97 96 94 91 90 90 88 86 83 79 77 75 73 72 71 69 66 64 62 60 60 57 55 53 52 51 51 51 52 58 69 76 79 80 77 65 55 51 52 51 50 49 47 47 52 59 66 74 84 94 99 100 99 99 99 100 99 99 100 99 99 100 100 99 99 100 98 96 93 85 63 32 10 3 3 4 4 5 6 7 8 9 11 12 13 13
94 90 86 83 81 82 83 83 82 81 79 77 75 72 71 68 65 61 58 55 53 52 50 49 48 47 46 48 50 50 55 65 72 77 81 79 68 60 62 65 63 57 52 49 51 56 60 68 81 94 100 101 99 98 98 99 99 99 100 100 99 99 100 100 99 99 100 100 98 86 63 37 17 6 3 3 4 5 5 6 7 9 10 12 13 14 14
73 69 67 66 66 68 70 71 72 71 69 69 68 67 64 60 54 49 47 44 42 39 36 35 36 39 41 45 49 52 55 61 67 73 77 78 75 75 77 75 70 65 60 57 59 63 69 78 92 100 100 98 100 100 99 99 100 100 99 99 100 100 99 99 100 100 99 99 98 82 52 26 13 8 5 4 5 7 7 8 8 10 11 13 14 15 15
40 39 40 44 49 54 58 60 60 61 61 60 58 53 48 42 37 34 32 31 30 28 27 26 28 33 37 40 44 49 55 60 67 74 80 82 83 86 86 81 75 73 71 69 69 73 80 89 97 100 100 99 100 100 99 99 100 100 100 100 100 100 100 99 99 99 100 100 94 74 47 25 14 10 8 8 10 10 9 9 9 11 13 15 15 16 17
34 34 36 40 47 53 56 55 53 51 48 44 39 33 29 25 23 22 21 20 19 19 21 23 26 29 32 34 35 41 52 62 69 74 80 83 83 84 85 85 83 82 82 80 77 77 84 93 98 99 100 100 99 99 100 100 99 99 99 99 98 99 100 100 99 99 100 95 78 54 34 22 15 12 12 14 14 13 13 14 14 14 15 16 17 18 19
30 32 35 41 46 48 46 42 37 32 28 24 22 20 18 17 17 16 15 15 16 17 19 23 27 32 34 33 33 38 49 61 69 75 80 84 86 85 87 89 89 88 90 93 90 86 88 93 97 98 99 100 100 100 99 99 100 100 98 97 98 99 99 99 99 100 99 90 72 54 42 34 27 22 22 22 21 19 18 17 16 16 18 20 21 22 23
22 22 24 27 29 28 26 24 20 17 17 16 15 14 15 15 14 14 13 13 14 18 24 30 38 44 47 46 49 56 64 71 76 81 85 89 92 93 94 94 92 92 95 99 99 97 96 97 98 99 100 99 99 100 100 99 100 100 99 98 99 99 99 99 100 99 97 91 79 66 56 49 42 38 36 32 27 22 19 17 16 19 23 25 26 27 30
19 18 17 17 16 16 16 15 14 13 13 13 12 12 13 13 12 13 13 13 16 25 36 46 56 63 65 66 70 79 87 91 91 93 95 97 97 97 96 94 94 96 99 100 99 99 100 100 99 99 99 99 99 100 100 99 98 99 99 99 100 99 99 100 100 99 95 87 76 64 54 49 47 45 40 32 25 21 18 18 20 24 29 33 35 36 38
17 17 17 16 16 16 15 15 14 14 13 12 12 12 11 12 14 14 13 17 27 37 46 58 70 78 81 82 85 90 95 99 99 98 99 99 98 97 97 95 94 96 99 99 99 98 98 97 96 94 95 96 98 98 98 98 98 98 97 98 99 100 100 99 99 97 88 74 60 52 47 44 42 41 36 30 26 27 27 27 29 34 39 42 42 40 38
11 12 13 13 13 14 14 14 15 15 14 13 14 13 12 13 14 12 13 28 47 57 60 70 84 90 89 88 89 91 95 99 100 99 99 99 98 99 100 99 97 97 98 98 96 94 91 91 92 92 94 97 98 99 100 100 98 96 96 97 98 100 100 99 98 94 83 67 55 51 51 49 46 43 40 37 37 39 39 39 40 43 44 43 39 34 30
7 7 8 9 11 12 12 12 13 14 14 14 14 15 14 14 14 12 17 32 47 53 57 69 85 94 95 95 94 94 96 99 99 97 96 96 96 97 98 97 97 98 98 96 93 90 88 88 91 94 97 98 99 98 98 99 98 98 99 99 99 100 100 99 98 94 87 76 66 61 59 58 54 50 47 46 46 47 47 47 47 47 43 37 30 27 26
5 6 7 10 12 12 11 11 11 12 13 14 15 15 15 15 15 16 18 24 30 36 48 66 82 91 95 98 98 97 98 101 100 97 94 93 93 91 90 90 92 95 95 92 90 87 87 91 95 97 98 98 97 96 95 96 97 98 99 100 99 100 100 99 97 94 89 83 77 72 68 64 61 58 55 52 50 50 50 48 45 40 35 30 29 29 30
5 6 7 10 11 9 8 9 10 10 11 12 14 16 16 17 17 17 19 21 22 27 39 60 78 86 88 92 96 98 97 95 93 91 89 90 91 89 85 85 87 89 88 87 87 88 90 94 98 99 99 99 99 97 96 96 98 99 100 100 100 100 99 98 97 95 92 87 83 78 71 65 62 60 56 50 47 45 44 41 39 37 36 37 38 38 36
5 5 6 7 8 7 6 7 8 8 9 11 12 13 16 18 18 19 22 24 25 27 38 60 81 91 90 91 98 102 97 89 85 86 88 91 93 92 87 84 84 86 85 85 86 88 91 94 95 96 98 99 99 97 96 97 99 100 99 99 99 99 99 98 95 93 90 86 82 77 70 63 58 55 50 44 41 40 39 41 43 47 48 49 48 46 44
5 5 5 6 6 5 4 6 7 8 9 9 8 9 13 16 17 20 25 29 31 36 47 61 76 85 88 88 92 97 96 91 90 93 97 97 96 94 91 87 84 84 84 84 83 87 92 95 95 96 98 100 99 96 96 98 99 99 99 100 100 99 98 95 91 87 84 81 76 71 67 62 58 54 51 48 46 45 47 49 51 51 51 50 50 48 47
6 4 4 5 5 4 4 5 5 6 7 8 7 8 11 13 14 20 29 36 40 46 52 54 58 69 81 87 89 95 99 97 93 93 96 96 93 91 89 85 80 76 75 74 75 82 91 96 98 99 100 100 99 98 98 99 100 99 98 99 99 99 98 98 94 88 83 79 76 73 70 67 64 61 60 58 57 56 55 55 54 53 52 51 51 52 54
7 7 6 6 5 5 5 4 4 4 5 6 6 7 11 13 16 23 33 40 47 56 62 60 58 66 76 83 87 93 95 93 90 89 88 86 84 81 78 76 74 71 70 69 72 77 83 87 92 97 99 98 98 100 100 99 100 100 99 99 100 100 99 100 98 92 86 81 78 75 71 68 65 63 61 60 59 59 59 59 60 61 62 63 66 69 72
10 13 13 11 11 11 11 10 10 10 8 6 4 5 9 13 18 27 37 43 50 58 64 67 72 79 82 82 83 85 85 86 89 90 84 79 78 78 76 76 78 79 80 80 80 79 77 78 82 88 90 89 89 91 93 95 97 99 99 99 99 99 99 100 100 97 89 80 74 70 69 67 64 64 65 68 70 74 78 80 81 82 84 87 89 88 85
Wind_Speed
17 18 18 22 28 27 25 26 28 28 26 24 28 30 25 17 10 10 14 15 16 16 15 14 12 13 20 24 24 24 24 23 22 21 20 21 23 24 26 26 26 25 24 25 24 23 23 23 22 22 23 25 26 26 25 24 22 20 20 21 21 21 22 22 22 21 21 20 20 20 20 19 18 19 19 19 19 19 19 18 16 15 14 13 12 12 12
17 18 17 22 29 27 22 23 23 24 25 23 22 27 29 24 14 9 9 11 14 17 18 18 16 14 17 19 20 20 20 20 20 20 18 18 20 22 23 24 24 23 22 22 22 21 22 22 22 22 22 24 25 26 26 25 23 21 21 21 22 22 23 23 23 22 22 22 21 21 20 19 19 20 20 20 20 19 18 17 16 14 13 13 12 12 12
18 23 23 26 30 27 22 23 25 26 26 22 21 24 28 27 20 13 10 9 10 15 19 21 21 20 19 19 18 18 18 19 19 17 16 16 18 18 20 21 22 22 21 21 21 21 22 22 22 22 22 23 25 26 27 26 24 22 21 22 22 23 24 24 24 23 23 22 21 20 20 20 21 21 21 20 19 18 17 16 15 14 13 13 12 12 12
17 26 30 30 33 28 22 21 23 27 28 24 21 22 24 26 25 18 14 12 8 10 15 20 23 25 25 24 23 21 21 21 19 16 16 16 16 16 17 18 20 21 21 21 21 21 21 22 21 21 22 22 24 25 26 26 25 23 22 22 22 23 25 25 25 25 23 22 20 20 20 21 21 21 21 20 19 18 17 16 15 14 14 13 12 12 11
16 24 30 33 33 24 18 20 20 20 25 26 22 20 20 22 23 20 18 15 9 7 11 15 19 24 26 27 27 26 24 22 18 16 15 14 14 14 15 15 17 19 20 20 20 19 18 19 20 20 20 20 22 24 25 26 27 25 24 23 23 24 25 26 26 25 23 22 20 20 20 21 21 21 21 20 19 18 17 16 15 15 14 13 12 11 10
16 21 28 30 24 11 11 21 19 14 18 23 21 19 18 17 16 15 16 16 10 7 8 10 14 19 23 25 26 25 23 20 17 16 14 12 12 12 13 15 17 18 19 20 19 17 17 18 18 18 19 19 21 23 26 27 28 27 25 24 24 25 26 26 26 25 24 23 22 21 21 20 21 22 21 21 20 18 16 15 15 15 14 12 11 10 9
20 24 27 19 9 6 12 20 17 13 15 18 17 17 17 16 14 11 12 14 12 10 8 8 12 17 19 20 22 23 21 19 17 15 12 9 8 8 10 13 15 17 18 19 19 19 18 18 18 19 20 21 22 24 27 28 29 28 27 27 26 26 27 28 27 26 25 24 23 23 22 21 22 22 22 22 20 18 16 15 15 14 13 12 11 10 9
19 19 17 9 5 11 17 17 15 15 15 16 18 18 17 16 14 13 14 15 14 13 10 9 12 16 17 16 18 20 20 20 18 16 12 8 6 5 5 8 11 12 14 17 20 20 19 19 19 20 22 23 23 24 27 28 29 29 29 29 28 27 28 29 28 27 26 26 26 24 24 24 24 23 24 23 20 18 16 15 14 13 12 11 10 10 10
13 13 14 13 13 13 14 15 16 16 16 16 18 19 18 17 16 16 17 16 14 14 13 11 11 14 15 16 18 20 21 21 19 17 14 11 9 8 8 8 9 11 12 15 18 20 21 21 20 20 21 23 25 27 28 29 30 29 30 29 28 28 28 29 30 30 28 27 27 25 26 27 24 23 25 24 20 17 16 15 13 12 11 11 11 11 11
15 19 16 12 8 6 9 15 16 16 17 16 15 16 17 18 17 16 17 17 14 14 14 15 14 14 15 16 18 20 22 22 20 17 15 13 12 11 11 11 13 14 15 15 15 17 21 22 22 22 22 24 27 30 31 30 30 29 28 28 28 28 29 31 31 30 28 26 26 26 28 27 25 25 27 24 20 18 17 15 14 12 11 11 11 12 11
19 20 13 5 2 6 12 15 15 17 18 16 15 14 13 15 17 16 16 16 14 13 15 16 16 17 16 14 15 18 19 19 18 16 15 14 12 12 13 15 16 16 17 17 16 17 21 23 24 23 22 23 27 30 28 27 26 26 25 25 26 27 28 28 27 26 25 24 25 28 26 24 25 27 27 23 20 19 17 15 14 13 13 13 13 12 12
17 16 13 7 5 9 13 15 15 16 16 16 15 10 8 13 17 16 16 16 15 15 16 14 14 16 17 14 14 16 17 17 17 16 15 14 13 13 14 16 17 17 18 19 18 18 20 22 23 23 23 24 26 25 22 21 22 22 22 22 23 23 23 24 24 23 22 21 23 26 24 21 24 30 29 25 23 20 17 15 14 14 14 14 14 13 12
17 16 14 11 10 13 15 14 14 14 14 14 12 8 10 15 16 15 17 17 17 17 16 13 13 15 17 17 15 16 17 17 17 16 15 14 13 14 14 15 15 16 17 18 19 19 20 22 23 24 24 24 23 21 19 19 21 22 19 18 18 19 20 21 21 20 18 17 18 21 21 20 24 28 27 24 23 20 17 15 14 15 15 16 15 13 12
16 17 16 13 12 14 14 12 12 12 12 11 10 10 13 15 15 15 16 17 18 18 16 14 13 14 17 17 15 15 15 15 13 12 12 11 10 11 11 11 12 13 15 17 18 20 22 24 24 24 24 23 21 19 18 20 22 23 21 19 18 17 18 18 18 17 16 16 15 16 19 20 21 22 21 21 20 19 18 16 16 16 16 16 15 13 12
12 14 13 9 8 11 11 10 9 9 10 11 11 11 11 12 13 14 15 15 17 17 17 17 15 15 17 17 15 14 14 12 11 10 9 8 8 8 7 8 10 11 14 16 17 18 21 22 24 25 24 22 21 20 20 22 22 21 21 21 20 19 19 18 16 16 16 16 15 16 19 20 21 21 21 22 21 18 17 18 18 17 17 16 15 14 12
6 7 7 7 8 11 10 9 9 10 10 11 10 8 7 8 10 11 12 13 14 15 17 18 18 19 20 19 17 15 14 13 12 10 10 9 9 8 8 8 9 11 13 15 15 15 17 18 21 22 22 22 22 22 22 22 19 15 17 20 20 20 21 19 17 16 16 15 16 19 20 20 23 24 22 22 21 18 18 19 19 18 17 16 15 14 13
5 7 9 11 12 11 9 9 10 10 9 8 7 5 4 4 5 8 9 11 12 14 16 18 19 21 22 23 20 16 14 13 12 10 9 9 8 9 9 9 10 12 14 15 15 15 15 16 18 18 19 21 23 22 21 20 16 13 17 20 19 20 20 18 17 16 15 15 18 20 21 22 23 23 21 20 21 19 19 19 19 19 18 16 15 15 13
6 8 10 11 10 9 9 8 8 7 7 6 5 4 3 3 1 3 6 9 12 14 15 17 19 22 23 25 24 19 15 14 13 11 10 10 9 10 9 10 11 12 13 14 15 15 15 16 17 17 18 21 22 21 21 19 16 16 19 21 20 20 18 16 15 15 15 16 18 19 21 22 23 22 20 20 21 20 19 19 20 19 18 17 16 15 14
5 6 8 9 9 9 8 6 6 5 4 3 3 2 2 3 3 2 2 5 8 12 16 17 19 22 24 26 26 22 17 15 16 15 14 12 11 11 10 10 10 10 10 11 13 14 16 17 18 18 19 19 20 21 21 19 16 18 22 23 22 21 18 16 16 17 17 17 18 19 21 22 22 22 21 22 22 21 20 19 19 18 17 17 16 15 14
5 5 6 7 7 6 5 5 4 3 1 0 1 2 3 4 3 2 2 3 5 8 12 16 19 21 23 26 28 26 21 20 20 20 18 16 14 13 13 13 12 11 10 10 11 13 15 17 17 18 18 16 16 20 22 20 18 20 23 23 22 21 20 20 20 20 20 19 19 20 21 22 22 22 21 21 21 21 20 20 18 17 16 16 16 16 15
7 7 6 6 5 4 4 4 3 2 2 2 3 4 5 5 4 3 2 3 4 5 8 11 16 19 21 24 27 28 27 26 25 24 21 19 17 15 16 15 14 13 12 12 12 13 14 14 15 15 15 15 16 19 22 21 20 21 22 22 22 22 23 23 23 23 21 20 19 20 22 22 23 23 22 21 21 22 22 21 21 20 19 18 18 17 16
10 9 8 6 5 5 4 4 4 4 4 4 5 6 6 7 7 6 4 3 4 5 6 8 11 15 18 21 25 28 29 29 29 27 24 21 18 17 17 17 16 15 15 14 14 14 14 15 15 14 14 15 17 21 24 23 21 22 23 24 23 23 23 24 24 24 22 20 19 20 22 23 23 23 22 22 24 25 24 23 23 23 23 23 22 20 18
11 11 10 9 7 6 5 5 5 5 5 5 6 7 8 9 10 10 9 8 7 6 7 9 10 12 15 18 21 25 27 28 28 27 25 22 20 19 19 19 17 16 16 15 15 15 16 17 17 16 16 16 18 22 26 25 23 23 24 24 24 25 26 26 25 24 22 20 19 20 21 23 24 23 22 23 25 25 24 24 25 25 25 25 23 20 19
11 11 11 10 9 9 7 7 7 7 7 7 8 9 10 11 12 13 13 13 11 9 8 10 11 13 14 16 19 23 26 27 28 27 25 23 21 20 21 21 20 19 18 17 16 16 17 18 18 18 18 17 18 20 24 26 25 24 25 26 26 28 30 29 26 23 22 21 20 20 22 23 24 24 23 24 25 24 23 24 26 27 26 25 22 19 17
12 11 11 11 10 10 10 10 10 10 10 10 10 11 12 12 13 13 13 13 12 10 9 10 12 14 16 17 19 22 25 27 29 29 28 26 24 24 25 26 24 22 20 19 18 18 19 20 21 20 19 18 18 20 23 27 27 26 27 28 29 30 32 31 27 24 23 22 21 21 23 24 24 24 24 25 24 22 22 25 27 27 26 24 21 19 17
13 12 11 11 11 11 11 11 12 12 12 12 12 12 12 12 12 12 12 11 10 10 9 10 12 14 16 18 19 21 22 24 25 26 26 26 25 25 24 24 24 23 21 21 21 21 22 23 23 23 21 19 19 21 24 28 29 27 27 27 28 30 32 32 29 27 25 23 22 23 24 24 24 24 25 25 24 23 24 26 27 27 25 23 20 18 18
14 13 12 12 11 10 10 11 11 11 11 12 11 11 10 11 11 11 10 10 9 10 10 10 12 14 16 17 18 19 20 21 22 24 24 24 23 21 18 18 21 24 25 25 26 27 27 26 26 25 23 21 20 22 25 29 29 26 25 25 27 30 32 32 30 29 27 24 23 25 25 25 25 26 26 26 24 23 25 26 27 26 25 22 19 18 18
13 13 13 12 12 11 11 11 11 11 11 10 10 9 9 10 10 10 10 10 10 11 11 12 12 13 15 16 17 17 18 19 21 22 23 24 23 21 19 19 23 26 27 29 30 30 29 28 26 26 25 23 22 23 25 28 28 25 23 23 24 26 29 29 28 28 28 27 26 26 26 26 26 27 27 26 24 25 27 28 28 27 26 23 20 19 18
13 12 12 12 12 12 12 12 13 13 12 12 11 11 10 10 11 11 11 11 11 11 12 12 12 13 14 15 16 16 17 17 18 20 21 22 22 21 21 22 24 26 28 29 30 31 30 30 29 27 25 23 23 24 25 26 25 24 23 21 21 22 23 23 23 26 30 30 29 28 28 27 28 28 28 26 26 27 29 29 29 28 26 23 22 20 19
13 13 13 13 13 13 13 13 13 13 13 13 12 11 10 10 11 11 12 12 13 13 13 12 12 12 13 14 15 16 16 16 16 17 19 20 20 21 23 24 25 26 27 28 28 27 28 29 29 27 23 21 22 25 27 25 23 22 21 21 22 23 23 22 22 25 29 31 30 30 29 28 29 29 28 27 28 29 30 30 29 28 26 23 22 20 19
12 13 13 14 14 14 14 13 12 11 11 12 11 10 10 10 11 11 12 13 14 14 14 14 13 13 13 13 15 16 16 16 16 16 17 19 21 22 23 24 25 25 26 26 25 23 23 26 26 23 21 20 22 25 28 26 22 19 19 20 21 21 22 22 23 26 29 31 31 30 30 29 29 29 29 29 30 31 31 30 29 27 25 23 21 19 19
12 12 13 13 13 13 13 13 12 11 11 11 11 11 11 10 11 11 12 13 15 16 16 15 14 14 14 14 15 15 16 16 16 16 17 19 21 22 22 23 23 24 24 24 24 22 25 27 23 19 19 22 23 25 28 26 23 20 19 19 20 19 19 22 25 28 31 34 34 33 31 29 29 28 28 29 30 31 30 29 28 27 24 22 20 20 21
11 11 11 12 12 13 13 13 12 12 12 12 13 13 12 12 12 12 13 15 16 17 18 18 16 15 15 15 15 16 15 14 14 15 16 17 18 19 20 21 22 22 22 21 20 20 23 25 22 21 22 23 22 24 26 26 24 21 19 18 19 20 20 22 25 29 32 34 35 34 31 28 27 27 27 28 30 31 30 29 29 27 24 21 20 21 22
10 10 10 10 10 11 12 13 13 13 13 14 14 14 14 13 14 14 15 16 17 18 20 20 18 16 16 15 15 15 14 13 12 13 14 15 16 18 19 19 20 20 20 19 18 17 18 21 22 23 22 20 21 24 27 27 25 21 18 16 18 21 21 22 24 27 30 33 34 33 31 28 26 25 26 28 30 30 30 30 29 27 24 21 21 21 22
11 11 12 12 12 11 11 12 12 13 14 15 15 15 15 15 15 16 16 17 18 19 20 20 19 17 16 16 16 15 14 13 13 12 13 15 17 18 18 17 18 19 19 18 17 16 17 19 20 20 20 20 22 26 28 29 27 23 19 17 18 20 21 22 24 26 29 31 33 32 30 28 27 27 28 29 30 30 31 30 28 26 23 21 21 21 21
14 14 14 14 14 14 13 13 13 13 14 14 15 15 15 16 16 16 17 17 18 18 18 18 18 17 16 16 16 16 15 14 14 14 15 17 18 18 16 15 15 17 18 17 15 14 14 16 19 21 23 24 26 27 27 27 26 24 21 20 20 21 22 23 25 27 29 31 31 30 28 27 28 30 30 31 31 31 31 30 27 24 22 21 21 21 21
15 15 14 13 13 13 13 13 14 14 14 14 15 15 15 15 16 16 16 16 17 17 17 17 16 16 16 15 14 14 15 15 15 15 16 16 17 15 14 13 14 15 15 14 12 12 13 17 22 24 25 26 27 27 25 23 21 20 19 19 19 20 22 24 26 28 30 31 31 31 29 29 31 32 33 33 33 32 30 28 25 23 21 21 21 20 20
12 12 12 12 12 11 11 12 13 13 13 14 14 14 14 14 15 15 15 16 16 17 17 16 15 15 15 15 14 14 14 15 15 14 14 13 13 13 13 13 13 12 11 10 10 12 15 19 23 23 23 24 25 25 23 21 19 18 18 18 18 19 21 23 25 28 29 31 32 32 31 31 32 32 31 31 31 30 28 26 24 22 20 20 19 19 19
7 8 10 10 10 10 10 11 11 11 11 12 12 12 13 13 14 14 15 15 16 16 16 15 15 14 15 15 15 14 14 14 14 14 13 11 11 12 13 12 11 10 10 10 11 12 16 20 23 23 22 22 22 22 21 19 18 18 18 19 20 19 20 22 25 28 30 32 31 30 29 30 30 29 29 28 28 28 27 26 23 21 20 19 19 19 19
5 6 7 8 8 8 8 9 9 9 9 10 11 12 12 12 13 13 13 14 14 15 15 14 14 14 14 15 15 13 12 12 12 11 11 10 9 9 9 9 9 10 11 12 12 13 14 18 21 22 22 21 21 21 20 19 18 17 17 18 19 19 20 22 26 29 32 33 33 32 32 33 32 31 30 29 28 28 27 25 23 21 20 19 18 18 17
5 6 6 6 7 8 8 8 8 8 9 10 11 11 11 12 12 12 12 12 12 12 12 12 11 10 11 12 11 10 9 9 8 7 7 7 7 7 7 7 8 9 11 12 14 15 15 17 19 20 20 20 20 19 19 18 17 16 15 17 19 21 22 24 27 29 31 32 32 32 32 32 32 31 30 29 27 26 25 24 22 20 19 18 17 16 17
5 6 5 5 6 7 7 7 7 8 8 9 10 10 10 11 11 11 10 10 10 9 9 9 8 8 8 8 7 6 6 5 4 5 5 6 6 7 8 8 9 9 10 12 14 15 16 18 18 18 19 19 18 18 17 16 15 14 14 16 19 22 25 27 28 29 29 27 26 25 25 25 27 28 27 26 24 23 22 21 20 19 18 18 17 17 18
4 5 5 5 5 6 6 6 6 7 7 7 8 8 9 9 9 9 8 7 7 7 6 6 6 7 7 6 5 6 7 7 6 6 6 6 6 7 9 10 10 10 11 12 13 14 15 16 17 17 17 16 14 12 12 11 11 11 12 13 16 21 25 28 30 31 28 25 24 24 24 24 25 25 24 23 21 20 20 20 19 20 20 19 19 19 20
4 5 5 5 6 6 7 7 7 7 7 7 7 7 7 8 8 8 7 6 5 5 4 4 4 6 6 5 6 7 8 8 7 7 7 7 7 8 9 10 11 12 12 13 14 14 14 14 14 14 12 11 9 8 8 9 9 10 10 11 14 18 23 27 31 32 30 28 27 27 27 27 26 24 23 22 21 20 20 20 20 21 21 20 20 21 21
5 4 4 5 6 6 7 7 7 7 7 6 6 6 7 7 6 6 5 5 6 6 5 4 6 6 5 4 5 6 6 6 6 7 7 7 7 8 9 9 10 11 13 15 15 14 14 13 12 11 9 7 7 7 8 8 8 8 9 11 15 18 22 25 28 29 28 27 27 28 28 28 26 24 23 22 21 21 20 20 21 21 21 20 20 20 20
5 5 4 4 5 6 6 6 6 6 6 5 5 6 6 6 6 5 5 5 6 5 4 4 6 6 6 5 6 6 5 5 5 6 7 7 7 8 9 9 9 10 13 13 13 13 13 12 11 10 9 8 8 7 7 6 5 5 6 10 13 16 19 21 22 23 24 24 25 27 28 28 26 23 22 22 22 21 21 20 19 19 18 18 18 18 18
4 4 5 5 5 5 5 5 4 4 4 4 4 5 5 5 5 5 5 5 6 6 5 5 5 5 5 5 5 6 6 5 5 6 6 6 7 7 9 10 11 13 13 13 12 12 12 11 11 11 10 9 9 8 7 6 5 4 4 6 9 12 14 16 18 19 20 22 24 26 27 27 25 23 22 21 21 20 20 18 17 16 16 16 16 17 18
4 4 5 5 5 5 4 4 4 4 3 3 4 4 3 4 4 4 4 5 6 5 5 5 5 5 5 5 6 6 7 6 6 6 6 6 6 8 10 11 12 13 13 12 11 10 10 10 9 8 8 8 8 8 7 5 4 3 3 3 5 8 11 13 15 17 18 20 23 24 25 24 23 22 21 20 19 19 18 17 17 16 16 17 17 18 19
5 5 4 4 5 5 4 4 5 5 4 4 4 3 3 3 4 4 4 4 5 5 4 5 6 7 6 6 6 7 6 5 5 6 6 5 5 6 7 8 8 9 9 9 7 7 7 7 8 7 7 8 9 9 8 6 5 4 3 3 5 8 11 13 15 16 17 19 20 21 21 21 21 20 18 18 17 17 17 17 17 17 17 18 18 18 18
3 4 4 5 5 5 4 5 6 6 5 6 5 4 4 4 4 4 5 5 5 5 5 4 5 5 5 5 5 5 4 4 4 6 7 7 7 7 7 6 6 6 5 5 5 5 5 6 8 9 10 10 11 11 10 8 8 7 6 6 7 10 13 14 14 15 16 17 17 18 18 18 19 18 16 15 14 14 14 14 15 15 16 16 16 16 16
1 1 3 5 5 5 5 5 6 6 6 7 7 7 6 5 4 5 6 7 7 6 5 5 5 5 4 4 4 4 4 5 6 6 7 8 9 8 7 6 7 7 6 6 6 6 6 6 7 9 11 13 13 13 12 11 11 11 10 9 9 12 15 15 15 15 16 16 16 16 16 16 17 16 15 13 11 11 11 11 12 13 13 14 15 16 17
2 1 0 1 3 5 5 5 5 5 6 7 8 8 7 6 5 5 6 7 7 7 7 6 5 5 4 4 4 4 5 5 5 5 6 6 6 5 5 5 5 5 5 6 6 6 6 6 7 8 11 12 12 13 12 12 13 13 11 10 12 16 18 18 17 16 16 15 15 14 14 14 14 14 13 11 10 10 11 11 12 13 14 15 17 19 20
Wind_Direction
177 191 201 192 184 182 182 188 195 200 203 207 211 211 208 212 222 212 206 205 206 209 205 202 201 185 182 187 189 192 199 206 211 211 209 209 208 206 205 204 207 211 211 208 207 209 209 208 208 209 208 210 212 213 217 223 226 228 229 229 227 224 221 219 220 222 226 230 234 238 242 244 247 249 251 253 254 255 257 257 257 257 258 261 263 266 270
160 172 187 182 176 176 178 187 194 198 201 204 207 211 214 220 228 219 204 196 194 200 205 208 209 194 182 183 189 195 201 207 211 210 206 207 209 210 207 204 204 208 209 208 209 211 211 210 211 212 210 211 213 213 216 221 224 227 229 229 228 226 223 222 223 226 229 233 235 238 240 242 244 247 249 251 253 253 254 254 254 255 256 256 258 262 267
159 163 171 172 171 168 166 178 188 193 198 199 199 206 212 217 222 226 227 221 196 193 200 204 207 206 201 197 197 197 200 205 210 210 205 203 207 211 210 205 203 204 205 207 208 209 209 211 213 214 213 213 213 214 216 219 223 227 229 230 229 227 225 224 225 228 230 231 233 236 239 241 243 246 248 248 249 250 250 251 250 249 249 250 254 259 263
154 161 167 168 170 170 168 172 178 185 196 198 192 196 203 210 218 225 230 234 217 194 197 199 202 207 209 207 204 200 200 206 212 210 204 201 203 207 208 203 200 200 202 204 205 204 206 210 213 214 213 213 214 214 215 218 223 226 228 230 230 228 226 225 225 227 227 228 231 234 237 240 243 245 246 246 246 246 246 244 243 242 243 247 252 256 258
144 159 168 167 168 171 179 184 177 176 191 198 195 193 196 205 215 221 225 229 222 197 197 199 201 205 209 211 209 205 205 208 210 210 207 202 199 200 202 201 197 196 198 202 204 202 202 207 212 213 213 214 215 214 214 217 222 225 227 229 230 229 227 226 225 225 225 226 229 232 235 239 243 244 243 241 241 240 238 237 235 236 241 246 250 253 253
140 155 163 161 160 158 172 182 179 169 182 196 199 195 191 194 200 210 221 224 216 197 193 198 199 200 206 213 212 208 208 209 208 209 208 203 197 195 200 203 203 201 200 202 205 203 202 205 210 214 216 215 216 215 213 216 220 224 226 228 229 229 228 227 226 225 226 227 228 230 234 240 244 244 240 236 234 231 229 229 231 233 239 244 248 249 248
144 150 154 154 155 146 155 169 172 161 167 182 187 182 179 179 174 179 200 209 209 201 189 191 196 195 200 210 211 208 208 208 210 213 216 214 206 199 201 206 212 212 210 210 210 209 207 205 207 216 221 219 218 217 216 217 219 222 226 228 228 228 228 227 227 227 228 229 230 231 236 241 245 244 240 232 227 224 222 224 228 232 238 243 245 243 239
146 148 148 144 126 128 140 155 164 157 155 163 170 170 171 174 170 166 176 187 197 202 197 188 188 191 196 204 206 206 206 208 211 215 217 219 217 217 216 216 222 226 224 222 219 215 213 210 208 216 223 222 220 220 220 219 219 221 225 228 228 228 228 228 228 229 229 230 232 234 238 242 244 242 237 230 220 215 217 220 226 230 235 240 241 235 231
143 131 116 115 119 119 131 147 155 158 154 154 164 171 169 167 165 163 166 173 187 204 210 203 192 191 196 199 201 201 203 208 212 213 215 218 221 230 241 241 237 231 227 229 228 221 218 217 215 219 226 227 225 224 222 220 219 221 225 227 227 228 229 229 228 228 229 231 235 238 242 247 247 238 231 224 214 210 214 216 221 227 230 233 232 227 225
137 131 112 104 111 112 131 143 151 162 162 156 162 169 165 162 162 163 165 170 182 198 204 201 198 199 203 204 204 202 203 206 209 211 213 215 217 224 234 237 235 231 227 230 232 224 218 220 221 223 228 230 228 225 222 219 220 224 229 229 229 230 231 230 229 229 230 232 237 241 245 250 250 239 226 216 205 204 209 212 214 220 223 224 224 221 223
134 134 120 99 110 126 135 140 149 161 166 164 164 167 170 168 165 166 168 169 173 181 185 187 192 199 203 204 204 206 207 209 213 216 218 219 223 227 231 230 228 229 229 229 227 218 214 217 221 224 227 228 227 225 222 220 223 227 232 234 235 236 237 238 238 238 240 241 245 250 252 250 244 236 226 213 202 201 205 208 211 215 216 215 215 216 219
134 129 113 100 117 134 136 137 144 156 164 167 165 168 183 177 169 169 172 170 170 174 178 180 185 189 192 192 197 206 211 216 224 230 229 230 230 227 228 228 226 227 230 231 228 220 214 216 221 226 227 225 226 228 225 225 228 230 233 240 244 246 246 244 244 247 252 255 255 258 262 254 239 233 223 209 201 198 199 205 210 213 212 208 208 212 216
130 122 109 104 119 133 134 133 140 151 159 166 168 168 175 175 173 173 173 172 172 172 174 178 180 183 188 192 199 209 214 220 230 235 236 235 229 223 224 225 224 227 230 233 231 223 217 217 222 228 229 227 230 233 229 231 236 233 233 241 246 247 248 245 243 246 252 255 254 258 263 255 242 238 230 215 202 193 192 200 207 209 208 204 205 211 214
117 115 110 109 117 126 126 122 132 147 155 157 154 152 162 174 179 179 177 177 176 174 175 180 183 188 193 197 204 212 215 218 222 223 226 228 225 225 225 222 222 225 227 232 234 229 225 224 223 228 231 230 233 233 228 233 241 240 240 242 240 240 244 242 239 240 242 242 246 256 263 255 242 236 232 226 213 194 186 194 201 202 203 202 205 210 211
109 112 110 108 117 128 126 115 118 134 142 140 137 140 155 170 177 180 184 184 182 182 183 184 186 192 197 201 208 211 210 211 211 210 209 209 209 213 215 216 221 223 223 228 233 235 236 233 229 231 233 230 231 231 226 235 248 250 245 242 237 237 239 237 235 236 236 237 245 257 259 249 233 222 220 225 220 199 186 192 195 196 200 203 205 207 207
101 103 100 107 122 127 121 106 103 110 117 125 131 136 150 163 171 177 183 186 188 192 193 192 191 194 198 203 207 208 207 208 213 217 214 209 207 206 206 212 219 222 225 228 230 236 242 243 241 239 234 231 233 230 225 237 255 254 237 231 230 232 235 235 235 234 232 238 252 256 249 235 223 218 218 223 220 202 191 193 192 192 199 203 205 205 206
91 92 102 116 123 120 110 104 103 101 100 105 109 111 125 154 175 181 184 187 189 193 199 202 200 198 200 204 204 203 206 208 211 215 213 212 213 208 207 212 216 221 227 229 231 237 242 248 253 248 237 234 234 228 225 236 246 235 224 225 226 230 233 232 230 229 232 241 251 250 237 223 219 219 219 222 219 206 195 194 192 193 199 202 204 205 208
105 101 109 120 125 119 110 107 103 96 91 89 85 77 66 54 69 193 200 198 194 194 198 204 207 207 207 207 204 201 200 205 211 215 214 215 218 216 215 215 215 220 226 229 234 237 239 246 254 250 242 238 232 224 225 231 229 218 217 222 228 233 232 226 226 233 242 247 248 242 228 220 219 218 215 217 218 208 196 194 195 196 199 202 204 207 210
139 122 118 123 127 125 119 114 109 103 98 91 86 71 39 20 7 337 260 219 207 203 200 202 208 212 212 212 211 206 203 208 218 222 224 224 224 225 225 219 216 221 228 231 236 239 241 246 251 250 248 242 229 221 223 229 228 219 215 221 231 232 225 223 234 244 248 248 246 237 226 221 221 219 214 214 215 208 197 195 199 201 203 204 205 208 213
158 145 139 136 135 136 138 139 140 139 139 155 284 308 319 326 332 326 288 255 235 223 215 209 209 212 214 216 217 215 214 218 222 227 231 230 226 224 221 216 216 220 222 224 230 235 240 245 249 250 249 241 228 222 222 226 227 220 217 226 231 225 219 227 237 240 240 244 245 237 228 224 223 220 217 216 214 206 197 195 198 202 204 207 208 210 215
172 168 168 166 167 176 186 192 199 211 234 271 292 299 302 299 289 269 250 248 243 241 237 226 217 216 218 219 219 218 219 222 226 231 233 231 227 224 220 215 214 215 213 213 220 229 237 242 245 246 241 233 224 217 216 221 222 219 225 236 234 224 223 228 230 230 234 241 245 238 228 222 220 220 218 214 209 203 198 196 198 198 199 203 208 212 217
177 179 180 181 189 199 206 217 232 245 258 270 278 282 284 280 267 250 242 247 244 241 245 241 229 223 221 220 220 220 221 225 230 232 231 227 223 219 216 212 210 209 208 209 214 222 231 239 245 246 240 233 225 217 218 225 227 225 233 239 234 230 232 230 225 228 235 242 244 238 228 221 220 221 218 211 205 202 201 202 203 202 201 203 206 210 216
182 184 185 188 197 202 201 210 227 242 256 263 268 273 275 275 270 263 259 261 259 249 242 241 236 228 224 222 222 222 224 226 228 227 225 222 218 214 212 212 211 209 210 212 216 222 229 235 241 245 241 236 232 226 224 225 224 224 232 236 232 233 238 234 226 226 234 242 243 236 227 223 222 222 219 213 208 207 209 210 209 207 207 209 210 213 219
193 193 193 196 204 211 216 224 232 239 250 261 268 273 274 275 276 274 271 269 267 260 247 240 236 232 228 226 227 228 228 227 226 224 221 219 217 213 211 213 214 213 214 217 222 230 237 240 242 245 243 240 238 234 226 220 218 221 228 232 233 234 237 236 228 222 229 240 239 230 224 223 223 222 218 212 211 215 219 218 213 210 211 213 213 216 222
205 204 204 206 214 224 231 236 241 246 253 261 266 271 275 278 281 281 279 275 272 266 255 243 237 234 232 232 234 236 236 234 232 228 224 221 218 214 214 217 218 215 216 221 227 234 240 242 242 244 243 239 237 234 224 216 216 221 227 231 235 236 234 231 225 221 228 236 234 226 223 222 223 224 218 211 212 220 223 219 215 214 216 217 216 216 220
216 215 215 218 225 234 240 244 247 249 253 258 261 266 272 278 283 285 281 274 268 264 258 249 240 236 234 234 237 240 242 242 240 235 231 227 223 222 226 227 222 217 218 224 230 234 237 238 239 242 242 238 233 230 222 215 216 225 233 237 241 241 236 228 220 218 224 229 226 221 220 221 222 220 215 212 214 220 220 217 215 217 219 220 219 220 221
223 223 224 225 229 236 243 248 249 249 251 254 257 263 272 277 280 280 275 265 256 253 253 251 246 241 237 235 235 237 239 241 240 239 238 237 234 235 235 227 219 219 224 228 232 235 236 237 240 243 243 239 233 227 220 216 219 230 240 244 245 244 240 234 225 217 214 216 218 217 217 220 220 215 212 214 218 218 215 212 212 215 219 220 220 222 224
229 230 232 234 236 238 241 245 247 248 250 252 257 266 274 273 269 267 266 263 258 253 252 252 251 248 244 241 238 236 234 234 234 234 236 239 242 241 233 219 214 220 227 232 236 240 241 242 245 247 245 242 235 227 217 214 221 233 243 248 248 244 239 239 234 223 211 206 208 212 215 216 215 212 212 216 219 215 210 209 210 212 215 216 217 220 223
239 240 241 241 243 243 242 244 247 250 254 258 263 269 272 267 262 261 265 267 267 263 260 259 257 256 255 252 248 245 239 234 230 229 229 232 237 238 232 223 219 223 228 234 239 244 247 247 249 251 251 246 238 226 213 210 222 236 242 246 250 247 239 236 234 227 218 208 202 206 212 213 211 212 214 218 217 212 208 208 211 213 214 215 217 220 222
251 251 250 249 249 248 246 246 248 253 258 261 262 264 267 265 262 264 267 270 270 269 267 265 264 263 262 260 257 255 252 246 239 233 231 231 232 233 233 231 229 231 234 239 245 251 256 256 252 248 249 250 242 226 212 210 225 240 242 241 246 249 246 237 226 223 223 216 206 203 207 210 211 214 217 218 215 209 207 209 212 214 215 218 220 222 224
252 253 253 251 248 245 244 244 247 252 256 257 257 259 262 262 261 263 268 271 273 273 272 270 268 265 263 262 261 258 257 256 251 242 237 234 233 233 234 235 238 240 243 248 252 252 255 259 253 239 235 246 244 225 213 216 230 244 247 248 252 256 254 244 228 219 219 218 212 207 206 208 212 217 219 217 212 207 207 210 213 214 217 220 221 223 226
245 246 248 246 243 240 239 240 244 249 253 253 253 253 254 255 258 263 269 273 274 275 274 272 271 269 265 263 263 261 259 258 255 250 245 240 238 239 239 241 244 248 251 256 257 250 248 252 244 220 220 240 239 221 214 221 234 245 250 252 256 258 255 248 237 226 220 217 214 209 206 208 213 218 218 214 209 206 207 210 212 215 217 219 220 223 227
238 238 241 243 241 240 239 238 240 244 249 250 250 249 250 254 260 265 270 272 273 274 275 275 275 273 268 265 264 264 262 258 254 253 252 248 245 246 246 246 250 253 255 259 261 255 249 246 232 213 217 230 226 213 214 224 235 246 250 249 250 253 252 248 243 235 228 225 221 215 210 210 213 216 214 210 207 206 207 210 212 214 216 217 218 223 227
228 228 230 233 235 235 237 238 239 242 246 248 249 249 250 255 260 264 267 270 271 272 273 274 273 272 268 264 262 261 259 252 246 248 254 257 255 253 251 252 257 260 263 267 268 260 247 238 228 217 213 213 209 209 216 225 235 247 252 246 245 249 251 250 245 239 235 233 230 225 219 215 212 210 209 207 206 206 207 209 212 213 214 215 218 223 227
222 223 224 227 227 226 227 230 234 239 244 247 249 251 253 258 262 264 265 267 268 269 271 272 271 269 264 259 257 255 252 247 241 240 246 254 257 258 258 259 261 263 265 269 271 263 247 233 220 205 195 196 204 211 217 225 236 246 250 247 246 247 248 247 244 240 237 235 232 228 224 219 213 209 207 205 205 206 208 210 212 212 213 215 220 224 228
230 232 233 233 230 227 225 226 229 234 240 244 248 252 256 259 262 264 265 266 268 269 269 270 269 267 263 260 258 255 251 248 246 241 240 246 254 262 266 266 263 262 264 266 267 259 240 217 199 190 191 199 207 213 219 226 234 239 242 245 245 245 244 243 240 238 237 234 228 223 220 216 213 211 209 206 206 207 209 210 211 211 213 217 221 226 229
240 245 247 245 242 239 236 235 234 236 240 243 248 253 257 260 262 264 265 267 269 271 272 271 269 267 265 263 259 255 251 251 251 249 248 250 256 261 264 262 259 261 263 264 259 245 221 201 194 196 201 206 212 218 225 231 235 238 241 243 243 242 243 243 240 238 237 233 226 220 215 211 209 208 207 207 208 209 210 210 210 212 215 219 223 228 231
240 245 248 249 249 247 245 244 244 244 245 248 252 256 259 262 264 266 267 269 271 274 275 273 269 266 264 262 259 254 250 249 250 251 251 252 253 255 257 261 262 259 254 247 237 223 208 201 201 205 209 214 219 225 232 238 244 247 247 247 246 244 245 245 243 238 234 230 225 219 213 210 208 206 205 206 208 210 211 211 211 213 217 221 226 230 232
244 244 243 244 245 245 244 245 246 248 251 254 257 260 262 263 265 267 268 270 272 274 275 274 270 266 263 260 258 255 250 247 248 248 248 249 252 253 253 255 257 250 238 230 223 214 205 203 204 208 213 218 225 231 238 245 250 251 249 247 246 244 243 243 241 235 229 225 219 213 210 210 209 207 205 206 208 210 211 212 213 215 218 223 227 231 232
254 251 247 246 245 245 245 245 247 250 254 257 258 259 261 264 266 267 269 271 273 274 274 273 270 266 263 261 260 256 249 246 247 246 242 242 247 249 246 247 248 242 231 225 220 212 203 201 205 209 215 221 228 235 242 248 253 255 253 249 246 242 240 238 236 232 227 223 217 211 208 208 207 206 204 204 206 208 209 209 212 215 217 221 227 230 233
261 256 253 252 252 252 251 251 252 253 254 256 258 260 263 265 267 268 269 272 275 277 275 273 269 263 259 258 256 251 249 251 249 239 228 227 235 242 246 247 247 241 231 224 219 214 208 205 206 211 217 222 227 233 238 242 246 249 248 245 243 239 235 231 229 226 224 222 219 215 211 209 207 205 204 204 204 205 205 206 209 212 214 219 224 230 235
276 272 266 262 261 258 254 253 254 254 254 256 258 260 262 264 266 269 272 275 276 274 272 269 262 254 251 249 236 221 225 240 243 228 222 229 240 248 252 252 247 241 233 225 221 220 218 216 214 216 220 223 226 229 232 235 237 238 240 243 243 239 231 225 220 216 214 212 210 208 207 207 207 206 205 205 204 204 204 206 208 210 213 219 226 233 239
279 277 275 272 269 264 261 262 260 258 258 258 257 257 260 261 264 269 274 273 270 268 265 257 246 241 242 238 213 191 190 196 204 213 224 236 245 251 256 257 252 241 227 218 216 219 221 220 220 220 220 220 219 221 225 231 235 236 239 246 249 245 237 229 222 215 209 201 194 192 194 198 200 202 203 204 204 204 206 207 208 211 217 223 231 237 242
275 272 271 269 265 263 265 265 261 258 259 259 258 258 260 259 262 267 266 253 245 249 251 239 228 226 223 217 207 196 190 192 203 216 226 236 240 242 246 253 251 239 223 214 213 216 216 215 212 209 207 206 209 215 224 232 235 236 238 242 245 244 240 234 227 221 214 204 195 191 192 195 197 198 200 201 202 204 207 208 210 215 222 228 234 239 242
266 264 267 268 263 260 261 261 258 256 258 259 257 258 259 259 262 265 255 236 231 237 233 214 208 208 199 192 199 199 193 200 220 231 236 244 246 237 231 236 239 231 220 213 210 208 205 200 195 192 194 203 215 225 231 233 234 239 243 244 242 240 238 235 231 226 219 210 202 198 197 195 195 197 199 201 204 207 211 213 217 221 227 232 237 240 243
264 259 261 258 253 253 258 260 258 257 257 253 249 251 255 255 254 254 250 241 237 237 226 202 196 194 184 180 196 208 211 221 238 242 244 255 260 245 225 212 205 202 202 200 196 194 191 188 185 188 195 203 208 211 212 212 217 232 245 246 244 242 241 238 233 226 219 211 205 201 197 195 193 195 199 202 206 210 213 216 220 225 231 235 239 243 247
264 256 254 247 241 248 257 259 257 258 255 242 234 239 244 240 235 237 242 240 235 231 218 195 184 183 183 186 201 213 216 224 244 254 256 259 257 238 215 196 184 180 181 181 181 184 187 188 189 191 191 192 195 199 197 191 186 195 218 234 239 239 236 232 227 222 216 210 205 202 200 197 196 197 200 204 207 211 215 218 221 225 230 234 237 241 246
260 259 260 248 238 242 249 247 242 244 237 220 216 225 228 222 221 231 236 231 225 222 213 197 190 192 189 185 194 211 222 233 250 258 255 250 243 231 218 203 188 176 171 172 179 188 193 195 200 204 201 195 196 199 197 187 176 169 181 215 230 229 224 219 216 213 210 207 204 203 202 202 201 202 203 205 207 210 213 215 217 220 224 230 236 243 250
256 254 256 246 238 241 246 244 242 242 234 221 217 218 213 211 215 219 216 209 206 205 203 206 213 215 209 201 205 219 231 244 252 246 234 222 216 215 214 207 194 180 173 176 188 200 200 200 208 216 214 202 194 190 183 171 161 159 173 210 219 212 207 206 206 206 206 206 205 205 206 206 206 205 204 203 205 208 211 215 221 228 234 241 248 254 259
264 241 236 236 240 245 247 244 242 240 234 228 223 215 208 215 221 210 195 190 192 190 187 190 199 205 209 214 219 222 225 236 246 245 239 234 229 223 219 220 224 221 213 210 218 219 207 199 201 204 199 188 179 173 166 155 150 162 192 220 216 202 199 202 205 206 207 207 207 209 212 214 213 213 211 210 212 218 224 230 236 242 247 252 256 259 262
328 248 230 229 233 242 251 254 252 247 239 232 226 216 207 210 212 199 186 184 184 179 171 164 164 170 184 204 220 229 237 245 252 257 258 254 250 246 242 241 245 248 247 244 238 226 205 190 188 190 186 177 168 164 160 154 155 171 199 217 206 193 195 203 206 207 209 212 212 214 217 220 221 221 220 220 222 228 235 240 245 250 254 258 263 268 272
10 26 88 211 224 238 247 252 258 258 248 235 226 218 209 201 190 178 175 177 177 172 167 164 166 175 194 207 213 223 235 242 250 259 257 244 234 236 243 248 248 244 234 223 213 196 175 162 164 171 172 171 169 169 168 166 168 178 194 202 193 187 194 205 212 213 215 216 215 215 219 224 224 223 223 225 231 239 247 253 258 262 266 270 274 276 278